DLH4561 EDDF-LKPR

Flight info

Callsign DLH4561
Flight time 0h 44m
Altitude 31000
Route SULUS6S SULUS Z650 TONSU Z35 ODOMO DCT LOMKI
Aircraft B748/H-SDE3FGHIM1M2RWXY/LB1

Departure

Time 2026-05-07 17:03
Airport Frankfurt Main Airport (EDDF)

Arrival

Time 2026-05-07 17:47
Airport Václav Havel Airport Prague (LKPR)
Time Latitude Longitude Altitude Speed Heading
2026-05-07 16:31 50.04755 8.56388 394 ft 0 kts 339°
2026-05-07 16:48 50.04735 8.56400 414 ft 4 kts 341°
2026-05-07 16:49 50.04710 8.56413 414 ft 4 kts 343°
2026-05-07 16:49 50.04686 8.56424 413 ft 3 kts 353°
2026-05-07 16:49 50.04670 8.56423 418 ft 3 kts 33°
2026-05-07 16:49 50.04660 8.56404 415 ft 2 kts 60°
2026-05-07 16:50 50.04655 8.56389 413 ft 2 kts 75°
2026-05-07 16:50 50.04653 8.56379 414 ft 0 kts 62°
2026-05-07 16:52 50.04654 8.56382 414 ft 1 kts 65°
2026-05-07 16:52 50.04657 8.56400 424 ft 1 kts 79°
2026-05-07 16:53 50.04655 8.56413 424 ft 2 kts 98°
2026-05-07 16:53 50.04654 8.56446 424 ft 3 kts 75°
2026-05-07 16:53 50.04661 8.56456 424 ft 0 kts 50°
2026-05-07 16:53 50.04662 8.56466 423 ft 2 kts 72°
2026-05-07 16:54 50.04656 8.56486 424 ft 2 kts 123°
2026-05-07 16:54 50.04640 8.56491 425 ft 3 kts 176°
2026-05-07 16:54 50.04608 8.56480 423 ft 7 kts 203°
2026-05-07 16:54 50.04532 8.56419 427 ft 13 kts 225°
2026-05-07 16:55 50.04498 8.56310 422 ft 10 kts 249°
2026-05-07 16:55 50.04476 8.56221 424 ft 8 kts 249°
2026-05-07 16:55 50.04455 8.56133 424 ft 9 kts 249°
2026-05-07 16:55 50.04430 8.56058 425 ft 5 kts 221°
2026-05-07 16:56 50.04388 8.56032 424 ft 7 kts 176°
2026-05-07 16:56 50.04347 8.56057 423 ft 8 kts 159°
2026-05-07 16:56 50.04261 8.56026 426 ft 9 kts 242°
2026-05-07 16:57 50.04234 8.55920 422 ft 12 kts 249°
2026-05-07 16:57 50.04199 8.55773 423 ft 17 kts 249°
2026-05-07 16:57 50.04152 8.55575 423 ft 22 kts 249°
2026-05-07 16:57 50.04091 8.55323 427 ft 27 kts 250°
2026-05-07 16:58 50.04030 8.55065 424 ft 24 kts 250°
2026-05-07 16:58 50.03978 8.54851 427 ft 15 kts 248°
2026-05-07 16:58 50.03945 8.54711 424 ft 13 kts 249°
2026-05-07 16:58 50.03915 8.54589 425 ft 11 kts 249°
2026-05-07 16:59 50.03888 8.54473 425 ft 12 kts 249°
2026-05-07 16:59 50.03852 8.54356 429 ft 12 kts 236°
2026-05-07 16:59 50.03803 8.54230 428 ft 17 kts 247°
2026-05-07 16:59 50.03751 8.54017 431 ft 24 kts 249°
2026-05-07 17:00 50.03696 8.53783 426 ft 22 kts 250°
2026-05-07 17:00 50.03643 8.53570 427 ft 20 kts 249°
2026-05-07 17:00 50.03597 8.53385 428 ft 16 kts 249°
2026-05-07 17:00 50.03557 8.53217 427 ft 18 kts 250°
2026-05-07 17:01 50.03509 8.53020 430 ft 21 kts 249°
2026-05-07 17:01 50.03453 8.52794 428 ft 23 kts 247°
2026-05-07 17:01 50.03408 8.52628 431 ft 11 kts 247°
2026-05-07 17:01 50.03370 8.52590 435 ft 7 kts 181°
2026-05-07 17:02 50.03347 8.52592 432 ft 0 kts 178°
2026-05-07 17:02 50.03334 8.52592 429 ft 13 kts 178°
2026-05-07 17:02 50.02907 8.52598 432 ft 114 kts 179°
2026-05-07 17:02 50.01800 8.52608 768 ft 188 kts 181°
2026-05-07 17:03 50.00408 8.52607 2076 ft 202 kts 182°
2026-05-07 17:03 49.99059 8.52625 3792 ft 183 kts 183°
2026-05-07 17:03 49.97697 8.52651 4202 ft 224 kts 180°
2026-05-07 17:03 49.96049 8.53504 4004 ft 267 kts 149°
2026-05-07 17:04 49.94816 8.55673 4308 ft 270 kts 118°
2026-05-07 17:04 49.94202 8.58476 5174 ft 278 kts 105°
2026-05-07 17:04 49.94023 8.61488 5992 ft 284 kts 94°
2026-05-07 17:04 49.93901 8.64556 6792 ft 285 kts 95°
2026-05-07 17:05 49.93635 8.67620 7810 ft 287 kts 110°
2026-05-07 17:05 49.92590 8.70218 8974 ft 286 kts 138°
2026-05-07 17:05 49.91067 8.72214 10082 ft 288 kts 143°
2026-05-07 17:05 49.89471 8.74249 10598 ft 311 kts 142°
2026-05-07 17:06 49.88057 8.76951 11108 ft 333 kts 122°
2026-05-07 17:06 49.86851 8.80061 11846 ft 348 kts 123°
2026-05-07 17:06 49.85556 8.83326 12634 ft 363 kts 122°
2026-05-07 17:06 49.84295 8.86811 13464 ft 377 kts 120°
2026-05-07 17:07 49.83039 8.90449 14241 ft 389 kts 120°
2026-05-07 17:07 49.81707 8.94165 15001 ft 399 kts 121°
2026-05-07 17:07 49.80328 8.97942 15776 ft 406 kts 121°
2026-05-07 17:07 49.78922 9.01760 16595 ft 411 kts 121°
2026-05-07 17:08 49.77500 9.05616 17439 ft 415 kts 121°
2026-05-07 17:08 49.76250 9.09676 18519 ft 421 kts 109°
2026-05-07 17:08 49.75394 9.14029 19340 ft 424 kts 108°
2026-05-07 17:08 49.74647 9.18478 20125 ft 429 kts 104°
2026-05-07 17:09 49.74000 9.23017 20892 ft 434 kts 104°
2026-05-07 17:09 49.73301 9.27583 21637 ft 439 kts 105°
2026-05-07 17:09 49.72513 9.32111 22358 ft 444 kts 107°
2026-05-07 17:09 49.71728 9.36751 23066 ft 449 kts 106°
2026-05-07 17:10 49.70954 9.41467 23767 ft 454 kts 106°
2026-05-07 17:10 49.70185 9.46216 24373 ft 458 kts 106°
2026-05-07 17:10 49.69410 9.51012 24993 ft 462 kts 106°
2026-05-07 17:10 49.68624 9.55842 25613 ft 465 kts 106°
2026-05-07 17:11 49.67829 9.60695 26247 ft 468 kts 106°
2026-05-07 17:11 49.67310 9.65655 27021 ft 471 kts 93°
2026-05-07 17:11 49.67675 9.70683 27896 ft 472 kts 81°
2026-05-07 17:11 49.68332 9.75643 28727 ft 471 kts 79°
2026-05-07 17:12 49.69178 9.80532 29558 ft 471 kts 75°
2026-05-07 17:12 49.70134 9.85363 30325 ft 470 kts 75°
2026-05-07 17:12 49.71026 9.90234 30908 ft 471 kts 78°
2026-05-07 17:12 49.72060 9.95078 31029 ft 481 kts 66°
2026-05-07 17:13 49.75803 10.03703 31049 ft 484 kts 53°
2026-05-07 17:13 49.79819 10.11964 31048 ft 482 kts 57°
2026-05-07 17:14 49.83631 10.20502 31049 ft 482 kts 56°
2026-05-07 17:14 49.87551 10.28939 31041 ft 482 kts 55°
2026-05-07 17:15 49.91495 10.37458 31048 ft 497 kts 56°
2026-05-07 17:15 49.93507 10.41926 31056 ft 512 kts 56°
2026-05-07 17:15 49.95576 10.46518 31055 ft 526 kts 56°
2026-05-07 17:16 49.99856 10.55879 31040 ft 532 kts 55°
2026-05-07 17:16 50.04097 10.65433 31020 ft 541 kts 62°
2026-05-07 17:17 50.05481 10.70839 31036 ft 537 kts 77°
2026-05-07 17:17 50.05964 10.76570 31033 ft 532 kts 92°
2026-05-07 17:17 50.05586 10.82244 31051 ft 527 kts 104°
2026-05-07 17:17 50.04650 10.87726 31049 ft 523 kts 112°
2026-05-07 17:18 50.02151 10.98339 31041 ft 522 kts 114°
2026-05-07 17:18 49.99887 11.09106 31032 ft 525 kts 110°
2026-05-07 17:19 49.97578 11.19787 31021 ft 527 kts 109°
2026-05-07 17:19 49.96616 11.31150 31042 ft 533 kts 96°
2026-05-07 17:20 49.96411 11.42685 31034 ft 534 kts 95°
2026-05-07 17:20 49.95937 11.54184 31023 ft 534 kts 96°
2026-05-07 17:21 49.95588 11.65714 31014 ft 535 kts 95°
2026-05-07 17:21 49.95224 11.77258 31027 ft 535 kts 96°
2026-05-07 17:22 49.94810 11.88812 31031 ft 535 kts 96°
2026-05-07 17:22 49.94420 12.00348 31027 ft 536 kts 93°
2026-05-07 17:23 49.94265 12.11907 31013 ft 535 kts 95°
2026-05-07 17:23 49.93948 12.23474 31019 ft 542 kts 94°
2026-05-07 17:24 49.93723 12.35180 31032 ft 542 kts 94°
2026-05-07 17:24 49.93389 12.46871 31022 ft 541 kts 96°
2026-05-07 17:25 49.93035 12.58564 31011 ft 542 kts 95°
2026-05-07 17:25 49.92720 12.70182 31019 ft 542 kts 95°
2026-05-07 17:26 49.92376 12.81873 31022 ft 542 kts 95°
2026-05-07 17:26 49.92000 12.93564 31018 ft 543 kts 95°
2026-05-07 17:27 49.91612 13.05258 31023 ft 543 kts 95°
2026-05-07 17:27 49.91215 13.16980 31021 ft 543 kts 96°
2026-05-07 17:28 49.90797 13.28703 31013 ft 544 kts 96°
2026-05-07 17:28 49.90410 13.40434 30693 ft 543 kts 92°
2026-05-07 17:29 49.90857 13.46179 30127 ft 531 kts 77°
2026-05-07 17:29 49.92180 13.51437 29511 ft 519 kts 62°
2026-05-07 17:29 49.94032 13.56153 28928 ft 505 kts 57°
2026-05-07 17:29 49.96026 13.60561 28312 ft 493 kts 52°
2026-05-07 17:30 49.98160 13.64664 27690 ft 482 kts 50°
2026-05-07 17:30 50.00234 13.68605 27094 ft 473 kts 52°
2026-05-07 17:30 50.02176 13.72681 26474 ft 465 kts 54°
2026-05-07 17:30 50.04117 13.76752 25892 ft 460 kts 52°
2026-05-07 17:31 50.06073 13.80584 25323 ft 456 kts 54°
2026-05-07 17:31 50.07537 13.84902 24815 ft 448 kts 71°
2026-05-07 17:31 50.08393 13.89516 24289 ft 438 kts 76°
2026-05-07 17:31 50.09011 13.94109 23730 ft 429 kts 81°
2026-05-07 17:32 50.09467 13.98685 23108 ft 425 kts 83°
2026-05-07 17:32 50.09877 14.03201 22406 ft 419 kts 82°
2026-05-07 17:32 50.10391 14.07655 21726 ft 414 kts 79°
2026-05-07 17:32 50.10766 14.10553 21284 ft 411 kts 80°
2026-05-07 17:33 50.11383 14.16376 20414 ft 404 kts 82°
2026-05-07 17:33 50.11838 14.20671 19688 ft 402 kts 81°
2026-05-07 17:33 50.12353 14.24849 18920 ft 382 kts 81°
2026-05-07 17:33 50.12799 14.28929 18201 ft 383 kts 83°
2026-05-07 17:34 50.13214 14.33031 17386 ft 384 kts 82°
2026-05-07 17:34 50.13430 14.37110 16546 ft 383 kts 96°
2026-05-07 17:34 50.12782 14.41050 15704 ft 361 kts 118°
2026-05-07 17:34 50.11556 14.44399 14941 ft 355 kts 124°
2026-05-07 17:35 50.10181 14.47609 14180 ft 357 kts 129°
2026-05-07 17:35 50.08667 14.50641 13373 ft 359 kts 131°
2026-05-07 17:35 50.07085 14.53666 12523 ft 361 kts 131°
2026-05-07 17:35 50.05543 14.56760 11696 ft 363 kts 128°
2026-05-07 17:36 50.04149 14.59766 10809 ft 317 kts 128°
2026-05-07 17:36 50.02894 14.62347 9971 ft 290 kts 131°
2026-05-07 17:36 50.01606 14.64870 9188 ft 304 kts 130°
2026-05-07 17:36 50.00315 14.67485 8308 ft 295 kts 128°
2026-05-07 17:37 49.99151 14.69953 7472 ft 271 kts 129°
2026-05-07 17:37 49.98428 14.71461 6992 ft 255 kts 129°
2026-05-07 17:37 49.96956 14.74116 5918 ft 235 kts 147°
2026-05-07 17:37 49.95601 14.75448 5300 ft 232 kts 146°
2026-05-07 17:38 49.94250 14.76753 4963 ft 226 kts 167°
2026-05-07 17:38 49.93257 14.76923 4905 ft 210 kts 190°
2026-05-07 17:38 49.92008 14.76070 4687 ft 191 kts 227°
2026-05-07 17:38 49.91444 14.74307 4386 ft 184 kts 267°
2026-05-07 17:39 49.91456 14.72387 4222 ft 174 kts 272°
2026-05-07 17:39 49.91505 14.70552 3980 ft 166 kts 274°
2026-05-07 17:39 49.91571 14.68780 3980 ft 164 kts 275°
2026-05-07 17:39 49.91641 14.67025 3994 ft 162 kts 275°
2026-05-07 17:40 49.91727 14.65273 4001 ft 163 kts 279°
2026-05-07 17:40 49.92215 14.63678 4012 ft 167 kts 301°
2026-05-07 17:40 49.92814 14.62140 3999 ft 165 kts 300°
2026-05-07 17:40 49.93381 14.60693 3982 ft 154 kts 300°
2026-05-07 17:41 49.93940 14.59278 4005 ft 154 kts 300°
2026-05-07 17:41 49.94503 14.57856 4007 ft 154 kts 300°
2026-05-07 17:41 49.95070 14.56452 3999 ft 155 kts 301°
2026-05-07 17:41 49.95687 14.55071 4006 ft 156 kts 304°
2026-05-07 17:42 49.96354 14.53729 4006 ft 157 kts 307°
2026-05-07 17:42 49.97059 14.52428 3999 ft 158 kts 308°
2026-05-07 17:42 49.97782 14.51149 4001 ft 158 kts 309°
2026-05-07 17:42 49.98508 14.49861 4009 ft 158 kts 309°
2026-05-07 17:43 49.99215 14.48556 4003 ft 158 kts 307°
2026-05-07 17:43 49.99897 14.47219 4008 ft 158 kts 306°
2026-05-07 17:43 50.00549 14.45852 4015 ft 158 kts 304°
2026-05-07 17:43 50.01178 14.44477 3914 ft 159 kts 302°
2026-05-07 17:44 50.01803 14.43073 3668 ft 157 kts 303°
2026-05-07 17:44 50.02445 14.41693 3454 ft 156 kts 304°
2026-05-07 17:44 50.03100 14.40344 3267 ft 158 kts 306°
2026-05-07 17:44 50.03772 14.38984 3597 ft 159 kts 305°
2026-05-07 17:45 50.04439 14.37628 3643 ft 157 kts 306°
2026-05-07 17:45 50.05124 14.36328 3392 ft 152 kts 311°
2026-05-07 17:45 50.05781 14.35108 3096 ft 141 kts 307°
2026-05-07 17:45 50.06318 14.33847 2665 ft 138 kts 300°
2026-05-07 17:46 50.06871 14.32634 2231 ft 137 kts 310°
2026-05-07 17:46 50.07452 14.31471 1923 ft 135 kts 305°
2026-05-07 17:46 50.08013 14.30289 1599 ft 136 kts 307°
2026-05-07 17:46 50.08608 14.29092 1416 ft 142 kts 304°
2026-05-07 17:47 50.09187 14.27875 1257 ft 137 kts 306°
2026-05-07 17:47 50.09782 14.26742 1216 ft 119 kts 282°
2026-05-07 17:47 50.10076 14.26044 1193 ft 54 kts 310°
2026-05-07 17:47 50.10243 14.25735 1191 ft 27 kts 323°
2026-05-07 17:48 50.10385 14.25658 1189 ft 19 kts 354°
2026-05-07 17:48 50.10434 14.25660 1189 ft 0 kts
2026-05-07 17:50 50.10438 14.25661 1189 ft 3 kts
2026-05-07 17:50 50.10470 14.25672 1189 ft 7 kts 13°
2026-05-07 17:51 50.10526 14.25712 1189 ft 10 kts 29°
2026-05-07 17:51 50.10603 14.25788 1188 ft 16 kts 34°
2026-05-07 17:51 50.10711 14.25902 1183 ft 21 kts 34°
2026-05-07 17:51 50.10831 14.26030 1177 ft 21 kts 34°
2026-05-07 17:52 50.10952 14.26159 1171 ft 21 kts 34°
2026-05-07 17:52 50.11070 14.26284 1170 ft 19 kts 36°
2026-05-07 17:52 50.11135 14.26438 1171 ft 15 kts 65°
2026-05-07 17:52 50.11171 14.26558 1173 ft 10 kts 62°
2026-05-07 17:53 50.11197 14.26644 1173 ft 10 kts 64°
2026-05-07 17:53 50.11229 14.26751 1175 ft 12 kts 65°
2026-05-07 17:53 50.11266 14.26873 1175 ft 13 kts 63°
2026-05-07 17:53 50.11311 14.27026 1171 ft 18 kts 65°
2026-05-07 17:54 50.11369 14.27217 1171 ft 20 kts 64°
2026-05-07 17:54 50.11398 14.27330 1172 ft 5 kts 89°
2026-05-07 17:54 50.11384 14.27375 1170 ft 4 kts 128°
2026-05-07 17:54 50.11379 14.27382 1171 ft 0 kts 138°
2026-05-07 17:55 50.11372 14.27390 1171 ft 4 kts 142°
2026-05-07 17:55 50.11346 14.27453 1173 ft 9 kts 96°
2026-05-07 17:55 50.11374 14.27565 1172 ft 11 kts 61°
2026-05-07 17:55 50.11406 14.27668 1173 ft 10 kts 65°
2026-05-07 17:56 50.11433 14.27760 1174 ft 6 kts 68°
2026-05-07 17:56 50.11432 14.27795 1175 ft 1 kts 105°
2026-05-07 17:56 50.11425 14.27807 1175 ft 1 kts 130°
2026-05-07 17:56 50.11409 14.27825 1175 ft 2 kts 150°
2026-05-07 17:57 50.11381 14.27847 1177 ft 0 kts 154°